Other Public Products
Issued by NWS Grand Forks, ND

Home | Current Version | Previous Version | Graphics & Text | Print | Product List | Glossary On
Versions: 1 2 3 4 5 6 7 8 9 10 11 12 13 14 15 16 17 18 19 20 21 22 23 24 25 26 27 28 29 30 31 32 33 34 35 36 37 38 39 40 41 42 43 44 45 46 47 48 49 50
000
FPUS83 KFGF 272110
OPUFGF
PRAIRIE TO PINES WEATHER ROUNDUP
NATIONAL WEATHER SERVICE EASTERN NORTH DAKOTA/GRAND FORKS ND
400 PM CDT WED MAY 27 2015

 **SATELLITE DATA USED TO AUGMENT SKY COVER AT AUTOMATED STATIONS**
 *****  WEATHER ACROSS EASTERN NORTH DAKOTA  *****

CITY           SKY/WX    TMP DP  RH WIND       PRES   REMARKS
GRAND FORKS    SUNNY     75  50  41 N7        29.97F
GRAND FORKS AF SUNNY     73  50  43 N8        29.98F
GRAND CITY NWS   N/A     75 N/A N/A N6          N/A
BUXTON         NOT AVBL
DEVILS LAKE    SUNNY     75  50  41 E10       29.96F
FARGO          SUNNY     81  54  39 NW6       29.96S
WAHPETON ARPT  CLEAR     81  48  32 NW3       29.96F
$$

 *****  WEATHER ACROSS CENTRAL AND WESTERN NORTH DAKOTA  *****

CITY           SKY/WX    TMP DP  RH WIND       PRES   REMARKS
JAMESTOWN      MOSUNNY   79  49  34 NE8       29.94F
BISMARCK       PTSUNNY   81  46  29 S17G23    29.93F
MINOT          PTSUNNY   79  50  36 E15G21    29.93S
MINOT AFB      PTSUNNY   78  51  38 E14       29.92F
GARRISON         N/A     81  43  26 S14       29.91F
WILLISTON      LGT RAIN  62  56  80 S15G25    29.94R
DICKINSON      CLOUDY    67  52  58 S16       29.88S THUNDER
HETTINGER      PTSUNNY   72  53  51 S21G29    29.91F
$$

 *****  OTHER OBSERVATIONS NORTHEAST NORTH DAKOTA  *****

CITY           SKY/WX    TMP DP  RH WIND       PRES   REMARKS
WALHALLA         N/A     70  45  40 MISG      30.00F
LANGDON        FAIR      72  48  43 NE8G16    30.01F
CAVALIER       FAIR      72  45  37 NE13      30.00S
GRAFTON        FAIR      73  46  38 N8G17     30.00R
CANDO          FAIR      73  46  38 SE6       29.98F
FORT TOTTEN      N/A     76  49  37 E7        29.95S
ROLLA          FAIR      68  45  42 E10       30.01F
RUGBY          NOT AVBL
 ***** THE ABOVE OBSERVATIONS ARE NON NWS ARE NOT QUALITY
        CONTROLLED AND MAY MIS-REPORT RAIN FOR SNOW...
$$

 *****  OTHER OBSERVATIONS SOUTHEAST NORTH DAKOTA *****

CITY           SKY/WX    TMP DP  RH WIND       PRES   REMARKS
COOPERSTOWN    NOT AVBL
VALLEY CITY    FAIR      81  50  34 N3        29.95F
OAKES            N/A     79  55  44 S3        29.95F
GWINNER        NOT AVBL
BUFFALO        NOT AVBL
WYNDMERE         N/A     84  46  26 N3          N/A
 ***** THE ABOVE OBSERVATIONS ARE NON NWS ARE NOT QUALITY
       CONTROLLED AND MAY MIS-REPORT RAIN FOR SNOW...
$$

  *****  WEATHER ACROSS NORTHERN MINNESOTA  *****

CITY           SKY/WX    TMP DP  RH WIND       PRES   REMARKS
FLAG ISLAND    SUNNY     66  45  45 NE7       29.98R
WARROAD        SUNNY     66  52  59 E12G17    29.99R
ROSEAU         SUNNY     73  46  38 N3        29.97S
HALLOCK        SUNNY     72  45  37 N8        29.99R
THF RVR FALLS  SUNNY     73  48  40 N7        29.98S
HALSTAD        NOT AVBL
FOSSTON        SUNNY     79  48  34 CALM      29.97S
BAUDETTE       SUNNY     70  46  42 NW12      29.97S
WASKISH        SUNNY     75  55  50 SW7       29.96R
CROOKSTON      SUNNY     77  50  38 N8        29.97S
$$
  *****  WEATHER ACROSS CENTRAL AND WEST MINNESOTA  *****

CITY           SKY/WX    TMP DP  RH WIND       PRES   REMARKS
BEMIDJI        SUNNY     78  50  37 NW9G17    29.96S
PARK RAPIDS    SUNNY     84  47  27 W9G18     29.95S
WADENA         SUNNY     81  50  34 NW9       29.97S
DETROIT LAKES  SUNNY     79  48  34 NW6       30.00R
MOORHEAD       SUNNY     81  55  41 W5        29.97S
FERGUS FALLS   SUNNY     81  50  34 NW7       29.96S
ELBOW LAKE     FAIR      80  52  38 NW8       29.97F
MORRIS MN      SUNNY     84  50  30 NW8       29.97S
STAPLES        SUNNY     81  46  30 W8        29.96R
WHEATON        SUNNY     81  48  32 W5        29.98S
$$
  *****  WEATHER ELSEWHERE ACROSS MINNESOTA  *****

CITY           SKY/WX    TMP DP  RH WIND       PRES   REMARKS
DULUTH         MOSUNNY   78  51  38 W8        29.91R
INTRNTL FALLS  MOSUNNY   76  47  35 NW10G18   29.93R
ELY            NOT AVBL
CLOQUET        MOSUNNY   82  43  24 NW8       29.91F
BRAINERD       MOSUNNY   81  46  29 NW3       29.95S
HIBBING        PTSUNNY   82  48  30 NW15G22   29.91R
ALEXANDRIA     SUNNY     81  49  32 W10       29.99S
SAINT CLOUD    SUNNY     83  54  36 W5        29.95S
MINNEAPOLIS    MOSUNNY   82  54  37 W10G18    29.96R
$$

  *****  WEATHER ACROSS SOUTH DAKOTA  *****

CITY           SKY/WX    TMP DP  RH WIND       PRES   REMARKS
SIOUX FALLS    MOSUNNY   80  49  33 W5        30.01S
BROOKINGS      MOSUNNY   81  46  30 N6        30.01S
WATERTOWN      MOSUNNY   82  47  29 S7        30.00F
HURON          PTSUNNY   81  49  32 SE6       29.98F
SISSETON         N/A     84  43  23 NW9       29.95F
ABERDEEN       PTSUNNY   83  49  30 W12       29.96F
MITCHELL       PTSUNNY   82  50  32 SW8       30.01S
PIERRE         PTSUNNY   75  51  43 S17       29.96F
MOBRIDGE       PTSUNNY   82  49  31 S17       29.92F
RAPID CITY     CLOUDY    67  57  70 S3        29.94F
$$

  *****  SOME WEATHER IN NEARBY STATES *****

CITY           SKY/WX    TMP DP  RH WIND       PRES   REMARKS
GLASGOW MT     MOSUNNY   72  53  51 S9G16     29.89F
GREAT FALLS MT PTSUNNY   60  49  66 SW10      30.00S
CHEYENNE WY    PTSUNNY   67  39  35 CALM      30.07S
SCOTTSBLUFF NE CLOUDY    62 N/A N/A SE7       30.02F
OMAHA NE       MOSUNNY   83  48  29 SW7       30.05S
DES MOINES IA  MOSUNNY   82  53  36 SW7       30.06S
DAVENPORT IA   MOSUNNY   78  56  46 NW7       30.06R
CHICAGO IL     PTSUNNY   71  57  61 NW12      30.02R
EAU CLAIRE WI  SUNNY     79  58  48 SW15      29.96S
LA CROSSE WI   MOSUNNY   81  58  45 SW9       29.98S
$$

  *****  SOME NATIONAL WEATHER *****

CITY           SKY/WX    TMP DP  RH WIND       PRES   REMARKS
LA GUARDIA NY  MOSUNNY   75  61  61 S18       30.08F
RALEIGH NC     PTSUNNY   87  68  52 SW8       30.17F HX  90
ATLANTA GA     PTSUNNY   82  65  56 S7        30.19F
NEW ORLEANS LA CLOUDY    73  67  81 SE7       30.10F
OKLAHOMA CITY  PTSUNNY   80  66  62 SE16      30.06F
ALBUQUERQUE NM CLOUDY    77  30  17 W10       30.11F
SALT LAKE CITY PTSUNNY   68  48  48 CALM      30.04R
LOS ANGELES CA MOSUNNY   66  54  65 W8        29.99F
BOISE ID       MOSUNNY   74  40  29 W13G21    29.96F
SEATTLE WA     MOSUNNY   72  53  51 W9        30.05F
$$

*** WEATHER ACROSS MANITOBA...SASKATCHEWAN AND ONTARIO ***
                ***ONTARIO***

CITY           SKY/WX    TMP DP  RH WIND       PRES   REMARKS
GERALDTON      PTSUNNY   59  41  51 N15       29.94R
THUNDER BAY    PTSUNNY   70  54  56 SE14      29.86R
SIOUX LOOKOUT  MOSUNNY   63  41  45 N12       29.99R
TORONTO        PTSUNNY   81  59  47 SW28G37   29.92S
BIG TROUT LK   SUNNY     50  19  29 N8        30.09R
PICKLE LAKE    MOSUNNY   55  30  38 N5        30.02S
DRYDEN         SUNNY     66  41  39 N7G17     29.98R
KENORA         MOSUNNY   66  45  45 NE8       30.00S
$$
                *** MANITOBA***

CITY           SKY/WX    TMP DP  RH WIND       PRES   REMARKS
BRANDON        NOT AVBL
DAUPHIN        SUNNY     59  32  36 E5G17     30.07S
ISLAND LAKE    MOSUNNY   54  21  28 N9        30.12S
PILOT MOUND      N/A     66  43  42 NE8         N/A
THE PAS        MOSUNNY   61  27  27 VRB10     30.09F
THOMPSON       MOSUNNY   57  23  26 N12G21    30.10S
WINNIPEG       PTSUNNY   64  39  39 N14G22    30.04S
LYNN LAKE      CLOUDY    57  25  28 S10G17    30.03F
CHURCHILL      PTSUNNY   34  25  69 N6        30.21R
GILLAM         PTSUNNY   45  25  45 N7        30.15R
$$
                ***SASKATCHEWAN***

CITY           SKY/WX    TMP DP  RH WIND       PRES   REMARKS
ESTEVAN        CLOUDY    72  48  43 E15G22    29.94F
KINDERSLEY     MOSUNNY   70  48  46 E7        29.97S
LLOYDMINSTER   PTSUNNY   73  41  31 S3        29.93F
PRINCE ALBERT  CLOUDY    63  36  36 SE5       30.01F
REGINA         PTSUNNY   70  46  43 NE5       29.96F
YORKTON        SUNNY     64  39  39 E8        30.01F


USA.gov is the U.S. government's official web portal to all federal, state and local government web resources and services.